Regional Weather Roundup
Issued by NWS Portland, ME

Current Version | Previous Version | Text Only | Print | Product List | Glossary Off
Versions: 1 2 3 4 5 6 7 8 9 10 11 12 13 14 15 16 17 18 19 20 21 22 23 24 25 26 27 28 29 30 31 32 33 34 35 36 37 38 39 40 41 42 43 44 45 46 47 48 49 50
000 ASUS41 KGYX 201805 RWRGYX WEATHER ROUNDUP FOR MAINE AND NEW HAMPSHIRE NATIONAL WEATHER SERVICE GRAY ME 200 PM EDT SAT OCT 20 2018 MEZ002-005-006-010-012-015-018-020-021-024-026-027-029-201900- MAINE CITY SKY/WX TMP DP RH WIND PRES REMARKS PORTLAND FAIR 63 44 50 SW14G20 29.53F 6HR MIN TEMP: 56; 6HR MAX TEMP: 63; SANFORD FAIR 63 44 50 SW20G25 29.54F BAR HARBOR FAIR 60 48 64 SW12G28 29.50S WISCASSET FAIR 61 45 55 W9G22 29.53F 6HR MIN TEMP: 56; 6HR MAX TEMP: 62; ROCKLAND PTSUNNY 57 48 72 SW15G24 29.51F FRYEBURG FAIR 62 40 44 SW12G22 29.51F 6HR MIN TEMP: 48; 6HR MAX TEMP: 62; LEWISTONAUBURN FAIR 60 43 53 SW17G26 29.52S AUGUSTA FAIR 62 42 47 SW12G24 29.50F 6HR MIN TEMP: 52; 6HR MAX TEMP: 62; WATERVILLE PTSUNNY 62 43 49 SW12G22 29.46F BANGOR PTSUNNY 62 42 47 SW14G22 29.47F 6HR MIN TEMP: 54; 6HR MAX TEMP: 63; 6HR PCP: TRACE; GREENVILLE N/A 56 34 43 SW8G20 29.40S 6HR MIN TEMP: 44; 6HR MAX TEMP: 58; MILLINOCKET CLOUDY 59 41 51 VRB6 29.43F 6HR MIN TEMP: 48; 6HR MAX TEMP: 60; 6HR PCP: TRACE; HOULTON PTSUNNY 58 43 57 SW13G23 29.40F 6HR MIN TEMP: 49; 6HR MAX TEMP: 58; 6HR PCP: TRACE; PRESQUE ISLE CLOUDY 57 41 55 S15G25 29.35F 6HR MIN TEMP: 47; 6HR MAX TEMP: 57; 6HR PCP: TRACE; FRENCHVILLE PTSUNNY 55 38 52 SW17G31 29.30F 6HR MIN TEMP: 44; 6HR MAX TEMP: 55; 6HR PCP: 0.01; CARIBOU CLOUDY 56 40 55 SW12G22 29.34F 6HR MIN TEMP: 47; 6HR MAX TEMP: 57; 6HR PCP: 0.01; $$ NHZ002-005-008-009-011-012-014-201900- NEW HAMPSHIRE CITY SKY/WX TMP DP RH WIND PRES REMARKS PORTSMOUTH PTSUNNY 60 44 54 W10 29.54F ROCHESTER FAIR 62 45 53 VRB7 29.54F 6HR MIN TEMP: 54; 6HR MAX TEMP: 62; NASHUA PTSUNNY 62 45 53 W7G14 29.58F MANCHESTER FAIR 63 43 48 SW10 29.56F 6HR MIN TEMP: 56; 6HR MAX TEMP: 63; CONCORD FAIR 61 43 51 W15G22 29.56F 6HR MIN TEMP: 53; 6HR MAX TEMP: 62; LACONIA PTSUNNY 58 40 51 W15G24 29.54F PLYMOUTH FAIR 61 35 37 SW8G23 29.52F BERLIN CLOUDY 60 33 36 W14G26 29.48F 6HR MIN TEMP: 52; 6HR MAX TEMP: 61; 6HR PCP: TRACE; WHITEFIELD FAIR 58 33 39 W14G25 29.50S 6HR MIN TEMP: 51; 6HR MAX TEMP: 60; 6HR PCP: TRACE; JAFFREY LGT RAIN 55 45 68 NW9G18 29.60F 6HR MIN TEMP: 51; 6HR MAX TEMP: 58; 6HR PCP: TRACE; KEENE PTSUNNY 57 44 62 S8 29.59 LEBANON PTSUNNY 61 36 39 SW14 29.53F 6HR MIN TEMP: 52; 6HR MAX TEMP: 62; 6HR PCP: TRACE; MT WASHINGTON NOT AVBL $$ VTZ005-007-008-201900- VERMONT CITY SKY/WX TMP DP RH WIND PRES REMARKS ST JOHNSBURY N/A 60 32 34 MISG 29.48F MONTPELIER PTSUNNY 57 34 41 SW13G22 29.55F BURLINGTON FAIR 61 28 28 W14G23 29.51F $$ MAZ007-012-024-CTZ003-RIZ002-NYZ038-NYZ072-201900- SOUTHERN NEW ENGLAND AND NY CITY SKY/WX TMP DP RH WIND PRES REMARKS BOSTON PTSUNNY 64 47 53 W14 29.59F WORCESTER CLOUDY 56 46 69 SW15 29.60F NANTUCKET CLOUDY 61 55 81 SW20 29.64F PROVIDENCE PTSUNNY 63 50 62 W13 29.62F HARTFORD PTSUNNY 63 46 54 SW9 29.61F ALBANY PTSUNNY 61 40 45 W15G23 29.61F NEW YORK CITY PTSUNNY 62 46 55 W13 29.67F $$ ANZ081-ANZ082-ANZ150-NHZ014-MEZ023>029-201900- COASTAL MARINE OBSERVATIONS STATION/POSITION TIME TEMP WIND PRES WAVE AIR SEA DIR/SP/G HT/PER (UTC) (F) (DEG/KT/KT) (MB) (FT/S) MOUNT DESERT ROC 1700 56 200/ 24/ 27 1000.6F MATINICUS ROCK 1700 57 240/ 26/ 30 999.9F ISLE OF SHOALS 1700 58 250/ 19/ 21 1001.0F JEFFREYS LEDGE 1706 55 N/A 4/ 5 $$ .............KEY.............. WCI - WIND CHILL TC - TEMPERATURE IN CELSIUS VSB - VISIBILITY IN MILES HX - HEAT INDEX FAIR- INDICATES FEW OR NO CLOUDS BELOW 12,000 FT, WITH NO SIGNIFICANT WEATHER AND/OR OBSTRUCTIONS TO VISIBILITY.

USA.gov is the U.S. government's official web portal to all federal, state and local government web resources and services.